FENGYUN 1C DEB, 30947

Orbit data source: Space-Track

FENGYUN 1C DEB, 30947 is space debris in SSO originally from a launch on Mon, 10 May 1999 UTC launched from the Taiyaun Space Center, China (TSC). Fengyun 1C debris stems from the Chinese weather satellite Fengyun-1C, which was intentionally destroyed by a Chinese anti-satellite missile in 2007. This event dramatically increased the amount of space debris, with thousands of trackable fragments posing hazards to satellites and human spaceflight. The Fengyun 1C debris cloud has become a focal point in discussions about space sustainability and the need for international regulations to prevent the creation of new debris.

Loading next visibility...
Identifier
30947, 1999-025BAM
Orbit
SSO
Country
Flag of CNCN / PRC
Related business
Manufacturer
Unknown
Mission
Spacecraft
Bus & Motor
Unknown
Mass
Unknown
Launch date (UTC)
1999-05-10 (27 years ago)
Launch vehicle
Unknown
Launch site
Taiyaun Space Center, China (TSC)
Object type
Payload
Rocket body
Debris
Shape & HBR
Unknown shape, 0.1 m
Radar Cross Section
Small (<0.1 m²)

Expand to show TLE details & history
Last TLE update: 10 hours ago

TLE from 10 hours ago
0 FENGYUN 1C DEB
1 30947U 99025BAM 26254.47785061  .00000361  00000-0  12681-3 0  9996
2 30947  98.7800 155.7217 0096414 159.5459 200.9630 14.38449805 24098
Epoch: 2026-09-11T11:28Z
TLE epoch observation values (Epoch: 2026-09-11T11:28:06.292Z)
Latitude
-0.00002°
Longitude
-6.80515°
Altitude
830.959 km
Speed
7.404 km/s
True Right ascension
10h 22m 53s
True Declination
0° 00' 00"
Sunlit
Object was in daylight at epoch
Visualization orbit readout
Latitude
Unknown
Longitude
Unknown
Altitude
Unknown
Speed
Unknown
Apparent Right ascension
Unknown
Apparent Declination
Unknown
Sunlit
N/A
Visualization observer readout
Local Sidereal Time
14:03:46
Azimuth
Unknown
Elevation
Unknown
Doppler factor
Unknown
Orbital elements
Apogee altitude
829.591 km
Perigee altitude
691.933 km
Semi-major axis
7,138.899 km
Eccentricity
0.00964
Inclination
98.78°
RAAN
155.7217°
Arg. of periapsis
159.5459°
True anomaly
200.57214°
Mean anomaly
200.963°
Eccentric anomaly
200.76713°
Mean motion
3.59829 °/min
Orbital period
100.05 mins
BSTAR
0.00012681
Loading maneuver chart data...
Computing Atmospheric mass density...
Loading historical data...
Loading historical data...
Loading historical data...
Loading historical data...
Loading historical data...
Loading historical data...
Loading historical data...

Documentation

Showing up to 5 results
|